Back to catalog

STARLINK-5557

AliveCommunicationsVLEO
NORAD 55770·PAYLOAD·🇺🇸 United States

Launched Mar 3, 2023 from Vandenberg Space Force Base

Loading…

Next Passes (next 24 hours)

TLE

FreshSource: CelesTrak SupGP

Epoch: Sep 15, 2026, 01:47 UTC

1 55770C 23028AF  26258.07479167  .00011585  00000+0  97091-3 0  2589
2 55770  69.9997 106.9827 0002219 278.0809 324.5117 14.98323605    11

Track STARLINK-5557 in real time with AllMySat

Download on the App Store